Location: Kernascl�den
(48.0062°N, 3.3198°W)
Time: 22:57:20
(UTC+00:00)

Cosmos 2263 Rocket - Pass Details

Date: 21 January 2021
Orbit: 825 x 847 km, 71.0° (Epoch: 04 March)

Event Time Altitude Azimuth Distance (km) Brightness Sun altitude
Rises 18:41:03 0° 240° (WSW) 3,400 6.7 -17.2°
Reaches altitude 10° 18:43:47 10° 251° (WSW) 2,466 5.9 -17.6°
Maximum altitude 18:48:44 30° 312° (NW) 1,467 3.8 -18.5°
Drops below altitude 10° 18:53:42 10° 13° (NNE) 2,467 4.4 -19.3°
Enters shadow 18:54:43 - 18° (NNE) 2,803 4.7 -19.4°
